Location: Finkenbach
(49.5340°N, 8.9188°E)
Time: 20:05:59
(UTC+00:00)

SeaSat 1 - Pass Details

Date: 17 June 2025
Orbit: 738 x 740 km, 108.0° (Epoch: 16 July)

Event Time Altitude Azimuth Distance (km) Brightness Sun altitude
Exits shadow 23:01:32 18° 129° (SE) 1,749 4.0 -16.9°
Maximum altitude 23:05:03 59° 55° (NE) 853 2.9 -16.9°
Drops below altitude 10° 23:09:53 10° 336° (NNW) 2,259 6.0 -17.0°
Sets 23:12:10 0° 333° (NNW) 3,186 7.0 -17.0°
